{"data":{"norad_id":65819,"intl_designator":"2025-220C","name":"HULIANWANG DIGUI-84","alt_names":[],"object_type":"PAYLOAD","status":"ACTIVE","operator":null,"country":"PRC","launch_date":"2025-09-27","launch_site_code":"TAISC","launch_vehicle":null,"mission":null,"orbit_class":"UNKNOWN","rcs_meters":null,"size_class":null,"mass_kg":null,"dimensions":null,"purposes":[],"wikipedia_slug":null,"has_3d_model":false,"image_url":null,"decayed_at":null,"tle_current":{"epoch":"2026-05-25T04:22:44.715072Z","epoch_age_seconds":53165,"freshness":"FRESH","line1":"1 65819U 25220C   26145.18246198  .00000040  00000+0  58218-4 0  9998","line2":"2 65819  86.4945  51.5157 0001415  65.8602 294.2680 13.24405973 31877","mean_motion":13.24405973,"eccentricity":0.0001415,"inclination_deg":86.4945,"raan_deg":51.5157,"arg_perigee_deg":65.8602,"mean_anomaly_deg":294.268,"bstar":5.8218e-5,"rev_number":3187,"period_min":108.72799046188,"perigee_km":1166.8697124874,"apogee_km":1169.0052515658,"semimajor_km":7546.0744820266,"source":"CELESTRAK","updated_at":"2026-05-25T13:38:05.701264Z"}}}